Miscellaneous Local Product
Issued by NWS Hastings, NE

Home | Current Version | Previous Version | Graphics & Text | Print | Product List | Glossary On
Versions: 1 2 3 4 5 6 7 8 9 10 11 12 13 14 15 16 17 18 19 20 21 22 23 24 25 26 27 28 29 30 31 32 33 34 35 36 37 38 39 40 41 42 43 44 45 46 47 48 49 50
000
AXUS43 KGID 012102
MISGRI

GID CWA HOURLY WEATHER ROUNDUP
NATIONAL WEATHER SERVICE HASTINGS NE
400 PM CDT FRI AUG 01 2014

NOTE: "FAIR" INDICATES FEW OR NO CLOUDS BELOW 12,000 FEET WITH NO
SIGNIFICANT WEATHER AND/OR OBSTRUCTIONS TO VISIBILITY.

...SOUTH CENTRAL NEBRASKA...

CITY           SKY/WX    TMP DP  RH WIND       PRES   REMARKS
GRAND ISLAND   SUNNY     85  57  38 NE10      30.11F
HASTINGS       SUNNY     83  56  39 NE13      30.11F
KEARNEY        SUNNY     86  57  37 N8        30.11F
ORD            SUNNY     84  55  36 VRB5      30.10F
YORK           MOSUNNY   81  63  54 NE10      30.10F
AURORA         SUNNY     82  60  47 NE7       30.11S
LEXINGTON      SUNNY     87  54  32 NE3       30.11F
HOLDREGE       SUNNY     85  55  36 NE8       30.12F
HEBRON         MOSUNNY   83  58  41 N10G16    30.08S

...NEBRASKA PANHANDLE...

CITY           SKY/WX    TMP DP  RH WIND       PRES   REMARKS
CHADRON        MOSUNNY   94  37  13 W9        30.08F
ALLIANCE       MOSUNNY   88  37  16 S8        30.15F
SCOTTSBLUFF    SUNNY     90  40  17 E10       30.16F
SIDNEY         MOSUNNY   90  40  17 SW8       30.19F

...WESTERN AND NORTH CENTRAL NEBRASKA...

CITY           SKY/WX    TMP DP  RH WIND       PRES   REMARKS
VALENTINE      SUNNY     93  48  21 MISG      30.07F
AINSWORTH      SUNNY     87  53  30 E7        30.10S
ONEILL         SUNNY     83  56  39 NE8       30.11F
BROKEN BOW     MOSUNNY   87  60  40 SE9       30.11F
IMPERIAL       SUNNY     90  42  18 NE9       30.14F
NORTH PLATTE   LGT RAIN  83  54  36 SW3       30.11F
MCCOOK         MOSUNNY   89  51  27 MISG      30.11F

...EASTERN NEBRASKA...

CITY           SKY/WX    TMP DP  RH WIND       PRES   REMARKS
NORFOLK        MOSUNNY   83  54  36 NE8       30.09F
SO SIOUX CITY  SUNNY     84  59  42 CALM      30.09S
TEKAMAH        MOSUNNY   84  58  40 CALM      30.08F
ALBION         SUNNY     81  51  35 E6        30.11F
OMAHA EPPLEY   MOSUNNY   84  58  40 NE8       30.08F
OFFUTT AFB     MOSUNNY   83  62  48 VRB6      30.08F
MILLARD        PTSUNNY   83  59  44 SE7       30.08F
LINCOLN        MOSUNNY   84  60  44 E9        30.08F
NEBRASKA CITY  SUNNY     81  62  52 E8        30.08S
BEATRICE       MOSUNNY   84  63  50 NE5       30.06S
FALLS CITY     PTSUNNY   82  63  52 E8        30.06S

...NORTHERN KANSAS...

CITY           SKY/WX    TMP DP  RH WIND       PRES   REMARKS
GOODLAND       MOSUNNY   88  45  22 VRB5      30.16F
HILL CITY      SUNNY     94  47  20 NE14G21   30.09F HX  90
NORTON         CLEAR     91  39  16 N8G18     30.10S
PHILLIPSBURG   SUNNY     90  52  27 NW10G17   30.08F
SMITH CENTER   SUNNY     88  55  33 NE10G20   30.08F
HAYS           MOSUNNY   90  54  29 N12       30.08F
RUSSELL        MOSUNNY   91  51  25 N14G20    30.05F
CONCORDIA      SUNNY     87  53  31 N14G22    30.05F
SALINA         SUNNY     93  47  20 N24       30.03F
TOPEKA         PTSUNNY   90  60  36 SE12G21   30.02F



USA.gov is the U.S. government's official web portal to all federal, state and local government web resources and services.